When you browse on this site, cookies collect data to enhance your experience and personalize the content and advertising you see.
Visit our Privacy Policy to learn more. By continuing to use the site, you agree to this use of cookies and data.
  • In Österreich
  • Länderverzeichnis
  • Für 7 Tage
  • Wassertemperatur
  • Satellitenkarten
  • Wetterkarte
  • News
  • Widgets
  • user-avatar
    Anmelden

    Stündliche Wetter Naschawar

    Heute, 23 April, Dienstag

    Zeit Temperatur Niederschläge Wind Luftdruck Luftfeuchtigkeit
    00:00 +30°C° 0 mm 1 m/S 728 mmHg 37%
    01:00 +29°C° 0 mm 2 m/S 728 mmHg 38%
    02:00 +28°C° 0 mm 2 m/S 728 mmHg 40%
    03:00 +28°C° 0 mm 2 m/S 727 mmHg 40%
    04:00 +27°C° 0 mm 2 m/S 727 mmHg 40%
    05:00 +27°C° 0 mm 2 m/S 727 mmHg 40%
    06:00 +28°C° 0 mm 2 m/S 728 mmHg 37%
    07:00 +29°C° 0 mm 2 m/S 728 mmHg 34%
    08:00 +30°C° 0 mm 2 m/S 728 mmHg 30%
    09:00 +32°C° 0 mm 2 m/S 728 mmHg 27%
    10:00 +34°C° 0 mm 2 m/S 729 mmHg 24%
    11:00 +36°C° 0 mm 2 m/S 729 mmHg 21%
    12:00 +36°C° 0 mm 2 m/S 729 mmHg 21%
    13:00 +37°C° 0 mm 2 m/S 728 mmHg 20%
    14:00 +38°C° 0 mm 2 m/S 728 mmHg 20%
    15:00 +37°C° 0.2 mm 3 m/S 728 mmHg 22%
    16:00 +36°C° 0.2 mm 4 m/S 728 mmHg 24%
    17:00 +35°C° 0.2 mm 4 m/S 728 mmHg 27%
    18:00 +34°C° 0.4 mm 4 m/S 728 mmHg 30%
    19:00 +33°C° 0.4 mm 4 m/S 728 mmHg 34%
    20:00 +30°C° 0.4 mm 3 m/S 729 mmHg 37%
    21:00 +30°C° 0.7 mm 3 m/S 729 mmHg 39%
    22:00 +29°C° 0.7 mm 3 m/S 729 mmHg 41%
    23:00 +29°C° 0.7 mm 3 m/S 729 mmHg 42%

    Morgen, 24 April, Mittwoch

    Zeit Temperatur Niederschläge Wind Luftdruck Luftfeuchtigkeit
    00:00 +28°C° 0.5 mm 3 m/S 729 mmHg 44%
    01:00 +28°C° 0.5 mm 2 m/S 729 mmHg 46%
    02:00 +27°C° 0.5 mm 2 m/S 728 mmHg 47%
    03:00 +27°C° 0.2 mm 2 m/S 728 mmHg 48%
    04:00 +27°C° 0.2 mm 2 m/S 728 mmHg 49%
    05:00 +26°C° 0.2 mm 1 m/S 728 mmHg 50%
    06:00 +27°C° 0.6 mm 1 m/S 729 mmHg 48%
    07:00 +27°C° 0.6 mm 1 m/S 729 mmHg 45%
    08:00 +26°C° 0.6 mm 0 m/S 730 mmHg 43%
    09:00 +29°C° 0.1 mm 1 m/S 730 mmHg 39%
    10:00 +30°C° 0.1 mm 1 m/S 730 mmHg 35%
    11:00 +32°C° 0.1 mm 2 m/S 730 mmHg 31%
    12:00 +32°C° 0.1 mm 2 m/S 729 mmHg 31%
    13:00 +34°C° 0.1 mm 2 m/S 729 mmHg 31%
    14:00 +34°C° 0.1 mm 2 m/S 729 mmHg 30%
    15:00 +34°C° 0.1 mm 2 m/S 728 mmHg 30%
    16:00 +34°C° 0.1 mm 2 m/S 728 mmHg 31%
    17:00 +34°C° 0.1 mm 2 m/S 727 mmHg 31%
    18:00 +32°C° 0.5 mm 2 m/S 727 mmHg 35%
    19:00 +30°C° 0.5 mm 2 m/S 728 mmHg 39%
    20:00 +29°C° 0.5 mm 3 m/S 728 mmHg 43%
    21:00 +29°C° 0.1 mm 2 m/S 728 mmHg 45%
    22:00 +28°C° 0.1 mm 1 m/S 729 mmHg 47%
    23:00 +28°C° 0.1 mm 1 m/S 729 mmHg 48%

    übermorgen, 25 April, Donnerstag

    Zeit Temperatur Niederschläge Wind Luftdruck Luftfeuchtigkeit
    00:00 +27°C° 0.2 mm 1 m/S 728 mmHg 51%
    01:00 +26°C° 0.2 mm 1 m/S 728 mmHg 53%
    02:00 +26°C° 0.2 mm 2 m/S 728 mmHg 56%
    03:00 +25°C° 0 mm 2 m/S 728 mmHg 58%
    04:00 +25°C° 0 mm 1 m/S 728 mmHg 59%
    05:00 +24°C° 0 mm 1 m/S 728 mmHg 61%
    06:00 +25°C° 0 mm 2 m/S 728 mmHg 57%
    07:00 +27°C° 0 mm 2 m/S 729 mmHg 52%
    08:00 +28°C° 0 mm 2 m/S 729 mmHg 47%
    09:00 +29°C° 0 mm 2 m/S 729 mmHg 42%
    10:00 +31°C° 0 mm 2 m/S 729 mmHg 37%
    11:00 +32°C° 0 mm 2 m/S 730 mmHg 32%
    12:00 +34°C° 0 mm 2 m/S 729 mmHg 29%
    13:00 +36°C° 0 mm 3 m/S 729 mmHg 25%
    14:00 +37°C° 0 mm 3 m/S 728 mmHg 21%
    15:00 +37°C° 0 mm 4 m/S 728 mmHg 20%
    16:00 +37°C° 0 mm 4 m/S 727 mmHg 19%
    17:00 +37°C° 0 mm 5 m/S 727 mmHg 18%
    18:00 +36°C° 0 mm 4 m/S 727 mmHg 21%
    19:00 +34°C° 0 mm 3 m/S 728 mmHg 25%
    20:00 +33°C° 0 mm 3 m/S 728 mmHg 28%
    21:00 +31°C° 0 mm 3 m/S 728 mmHg 31%
    22:00 +30°C° 0 mm 2 m/S 728 mmHg 33%
    23:00 +29°C° 0 mm 2 m/S 729 mmHg 36%

    26 April, Freitag

    Zeit Temperatur Niederschläge Wind Luftdruck Luftfeuchtigkeit
    00:00 +28°C° 0.1 mm 2 m/S 728 mmHg 40%
    01:00 +27°C° 0.1 mm 2 m/S 728 mmHg 44%
    02:00 +26°C° 0.1 mm 2 m/S 727 mmHg 48%
    03:00 +25°C° 0 mm 2 m/S 728 mmHg 50%
    04:00 +25°C° 0 mm 2 m/S 728 mmHg 52%
    05:00 +24°C° 0 mm 2 m/S 728 mmHg 54%
    06:00 +26°C° 0 mm 2 m/S 728 mmHg 50%
    07:00 +27°C° 0 mm 2 m/S 729 mmHg 46%
    08:00 +28°C° 0 mm 2 m/S 729 mmHg 42%
    09:00 +29°C° 0 mm 2 m/S 730 mmHg 37%
    10:00 +31°C° 0 mm 2 m/S 730 mmHg 33%
    11:00 +32°C° 0 mm 2 m/S 730 mmHg 29%
    12:00 +34°C° 0 mm 2 m/S 730 mmHg 27%
    13:00 +35°C° 0 mm 2 m/S 729 mmHg 24%
    14:00 +36°C° 0 mm 2 m/S 729 mmHg 22%
    15:00 +36°C° 0 mm 2 m/S 728 mmHg 21%
    16:00 +36°C° 0 mm 3 m/S 728 mmHg 21%
    17:00 +36°C° 0 mm 3 m/S 728 mmHg 20%
    18:00 +35°C° 0 mm 3 m/S 728 mmHg 23%
    19:00 +32°C° 0 mm 2 m/S 728 mmHg 26%
    20:00 +31°C° 0 mm 2 m/S 728 mmHg 29%
    21:00 +30°C° 0 mm 2 m/S 728 mmHg 31%
    22:00 +30°C° 0 mm 1 m/S 729 mmHg 32%
    23:00 +29°C° 0 mm 1 m/S 729 mmHg 34%

    27 April, Samstag

    Zeit Temperatur Niederschläge Wind Luftdruck Luftfeuchtigkeit
    00:00 +28°C° 0 mm 1 m/S 729 mmHg 35%
    01:00 +27°C° 0 mm 2 m/S 728 mmHg 37%
    02:00 +27°C° 0 mm 2 m/S 728 mmHg 38%
    03:00 +26°C° 0 mm 2 m/S 728 mmHg 39%
    04:00 +26°C° 0 mm 2 m/S 728 mmHg 41%
    05:00 +25°C° 0 mm 2 m/S 728 mmHg 42%
    06:00 +26°C° 0 mm 2 m/S 728 mmHg 39%
    07:00 +28°C° 0 mm 2 m/S 729 mmHg 36%
    08:00 +29°C° 0 mm 3 m/S 729 mmHg 33%
    09:00 +30°C° 0 mm 2 m/S 729 mmHg 30%
    10:00 +32°C° 0 mm 2 m/S 729 mmHg 27%
    11:00 +34°C° 0 mm 2 m/S 729 mmHg 24%
    12:00 +35°C° 0 mm 2 m/S 729 mmHg 22%
    13:00 +36°C° 0 mm 2 m/S 728 mmHg 20%
    14:00 +37°C° 0 mm 2 m/S 728 mmHg 19%
    15:00 +37°C° 0 mm 2 m/S 727 mmHg 18%
    16:00 +37°C° 0 mm 3 m/S 727 mmHg 17%
    17:00 +37°C° 0 mm 3 m/S 726 mmHg 17%
    18:00 +36°C° 0 mm 3 m/S 727 mmHg 20%
    19:00 +34°C° 0 mm 2 m/S 727 mmHg 23%
    20:00 +32°C° 0 mm 2 m/S 727 mmHg 26%
    21:00 +31°C° 0 mm 2 m/S 727 mmHg 27%
    22:00 +30°C° 0 mm 3 m/S 727 mmHg 29%
    23:00 +29°C° 0 mm 3 m/S 728 mmHg 31%

    28 April, Sonntag

    Zeit Temperatur Niederschläge Wind Luftdruck Luftfeuchtigkeit
    00:00 +28°C° 0 mm 3 m/S 727 mmHg 34%
    01:00 +27°C° 0 mm 3 m/S 727 mmHg 37%
    02:00 +26°C° 0 mm 2 m/S 727 mmHg 40%
    03:00 +26°C° 0 mm 2 m/S 727 mmHg 41%
    04:00 +26°C° 0 mm 2 m/S 727 mmHg 42%
    05:00 +25°C° 0 mm 2 m/S 727 mmHg 43%
    06:00 +26°C° 0 mm 3 m/S 727 mmHg 39%
    07:00 +27°C° 0 mm 3 m/S 728 mmHg 35%
    08:00 +29°C° 0 mm 3 m/S 728 mmHg 30%
    09:00 +30°C° 0 mm 3 m/S 728 mmHg 26%
    10:00 +31°C° 0 mm 3 m/S 728 mmHg 22%
    11:00 +34°C° 0 mm 4 m/S 728 mmHg 18%
    12:00 +35°C° 0 mm 3 m/S 728 mmHg 17%
    13:00 +35°C° 0 mm 3 m/S 727 mmHg 16%
    14:00 +36°C° 0 mm 2 m/S 727 mmHg 14%
    15:00 +36°C° 0 mm 2 m/S 726 mmHg 14%
    16:00 +36°C° 0 mm 2 m/S 726 mmHg 14%
    17:00 +36°C° 0 mm 2 m/S 726 mmHg 14%
    18:00 +34°C° 0 mm 1 m/S 726 mmHg 15%
    19:00 +32°C° 0 mm 1 m/S 726 mmHg 17%
    20:00 +31°C° 0 mm 1 m/S 727 mmHg 19%
    21:00 +30°C° 0 mm 1 m/S 727 mmHg 19%
    22:00 +30°C° 0 mm 1 m/S 727 mmHg 19%
    23:00 +29°C° 0 mm 1 m/S 727 mmHg 19%
    Mehr zeigen